Weather History for KFLL - March, 2013

Change the Weather History Date:

Saturday, March 30, 2013

  Actual Average Record
Temperature  
Mean Temperature 71 °F 74 °F  
Max Temperature 76 °F 81 °F 90 °F (1970)
Min Temperature 66 °F 68 °F 41 °F (1953)
Degree Days  
Heating Degree Days 0 0  
Month to date heating degree days 42 7  
Since 1 July heating degree days 85 109  
Cooling Degree Days 6 9  
Month to date cooling degree days 123 245  
Year to date cooling degree days 580 601  
Growing Degree Days 20 (Base 50)    
Moisture  
Dew Point 50 °F    
Average Humidity 51    
Maximum Humidity 63    
Minimum Humidity 38    
Precipitation  
Precipitation 0.00 in 0.13 in 1.72 in (1950)
Month to date precipitation 0.09 3.22  
Year to date precipitation 3.21 9.81  
Snow  
Snow 0.00 in - - ()
Month to date snowfall 0.0  
Since 1 July snowfall 0.0  
Snow Depth 0.00 in    
Sea Level Pressure  
Sea Level Pressure 30.22 in    
Wind  
Wind Speed 9 mph (East)    
Max Wind Speed 16 mph    
Max Gust Speed 22 mph    
Visibility 10 miles    
Events      
T = Trace of Precipitation, MM = Missing Value Source: NWS Daily Summary

Daily Weather History Graph

Daily Weather History Graph

Search for Another Location

Airport or City:

Trip Planner

Search our weather history database for the weather conditions in past years. The results will help you decide how hot, cold, wet, or windy it might be!

Date:

Astronomy

Mar. 30, 2013 Rise Set
Actual Time 7:13 AM EDT 7:36 PM EDT
Civil Twilight 6:50 AM EDT 7:59 PM EDT
Nautical Twilight 6:23 AM EDT 8:26 PM EDT
Astronomical Twilight 5:56 AM EDT 8:54 PM EDT
Moon 11:17 PM EDT (3/30) 9:28 AM EDT (3/30)
Length of Visible Light 13h 09m
Length of Day
12h 23m
Waning Gibbous, 86% of the Moon is Illuminated
Mar 30
Waning Gibbous
Apr 3
Last Quarter
Apr 10
New
Apr 18
First Quarter
Apr 25
Full

Hourly Weather History & Observations

Time (EDT) Temp. Dew Point Humidity Pressure Visibility Wind Dir Wind Speed Gust Speed Precip Events Conditions
12:53 AM 66.9 °F 51.1 °F 57% 30.24 in 10.0 mi East 6.9 mph - N/A   Partly Cloudy
1:53 AM 66.9 °F 50.0 °F 54% 30.22 in 10.0 mi East 6.9 mph - N/A   Partly Cloudy
2:53 AM 66.9 °F 50.0 °F 54% 30.22 in 10.0 mi East 5.8 mph - N/A   Partly Cloudy
3:53 AM 66.0 °F 50.0 °F 56% 30.22 in 10.0 mi East 4.6 mph - N/A   Partly Cloudy
4:53 AM 66.9 °F 50.0 °F 54% 30.20 in 10.0 mi ENE 4.6 mph - N/A   Partly Cloudy
5:53 AM 66.9 °F 50.0 °F 54% 30.21 in 10.0 mi East 8.1 mph - N/A   Partly Cloudy
6:53 AM 66.9 °F 50.0 °F 54% 30.22 in 10.0 mi East 6.9 mph - N/A   Partly Cloudy
7:53 AM 68.0 °F 50.0 °F 52% 30.24 in 10.0 mi East 6.9 mph - N/A   Partly Cloudy
8:53 AM 70.0 °F 48.9 °F 47% 30.27 in 10.0 mi East 8.1 mph - N/A   Scattered Clouds
9:53 AM 72.0 °F 50.0 °F 46% 30.26 in 10.0 mi East 10.4 mph - N/A   Partly Cloudy
10:53 AM 73.0 °F 48.0 °F 41% 30.27 in 10.0 mi East 9.2 mph - N/A   Partly Cloudy
11:53 AM 73.9 °F 46.9 °F 38% 30.26 in 10.0 mi ESE 9.2 mph 18.4 mph N/A   Partly Cloudy
12:53 PM 73.9 °F 48.0 °F 40% 30.25 in 10.0 mi East 10.4 mph - N/A   Partly Cloudy
1:53 PM 73.9 °F 50.0 °F 43% 30.23 in 10.0 mi East 11.5 mph - N/A   Partly Cloudy
2:53 PM 73.9 °F 51.1 °F 45% 30.20 in 10.0 mi ESE 12.7 mph 19.6 mph N/A   Partly Cloudy
3:53 PM 73.9 °F 50.0 °F 43% 30.18 in 10.0 mi East 12.7 mph 18.4 mph N/A   Partly Cloudy
4:53 PM 73.9 °F 50.0 °F 43% 30.17 in 10.0 mi East 10.4 mph - N/A   Partly Cloudy
5:53 PM 73.0 °F 50.0 °F 44% 30.17 in 10.0 mi ESE 9.2 mph - N/A   Partly Cloudy
6:53 PM 71.1 °F 52.0 °F 51% 30.17 in 10.0 mi ESE 9.2 mph - N/A   Partly Cloudy
7:53 PM 69.1 °F 52.0 °F 54% 30.18 in 10.0 mi ESE 9.2 mph - N/A   Scattered Clouds
8:53 PM 69.1 °F 53.1 °F 57% 30.19 in 10.0 mi ESE 9.2 mph - N/A   Partly Cloudy
9:53 PM 68.0 °F 52.0 °F 56% 30.20 in 10.0 mi SE 10.4 mph - N/A   Partly Cloudy
10:53 PM 66.9 °F 53.1 °F 61% 30.21 in 10.0 mi ESE 8.1 mph - N/A   Partly Cloudy
11:53 PM 68.0 °F 53.1 °F 59% 30.21 in 10.0 mi ESE 8.1 mph - N/A   Partly Cloudy